Back to catalog

CZ-6A DEB

AliveSSO
NORAD 54422·DEBRIS·🇨🇳 China

Launched Nov 11, 2022 from Taiyuan Satellite Launch Center

Loading…

Next Passes (next 24 hours)

TLE

FreshSource: Space-Track

Epoch: Sep 14, 2026, 11:46 UTC

1 54422U 22151EW  26257.49096887  .00000389  00000-0  21077-3 0  9991
2 54422  98.8064 272.2389 0038345  99.2956 261.2558 14.17802307198280

Track CZ-6A DEB in real time with AllMySat

Download on the App Store